Wind_Speed
24 25 24 23 23 23 22 21 20 20 19 18 19 19 19 19 19 19 19 20 19 18 18 18 18 19 20 21 21 21 20 18 17 16 16 16 17 18 20 21 20 21 21 22 22 22 24 25 25 25 24 25 27 26 26 26 24 25 26 25 26 27 24 20 10 6 12 19 20 23 27 29 31 33 33 32 31 29 27 26 26 26 28 31 31
25 26 26 25 24 23 23 22 21 21 21 21 21 21 21 20 20 20 21 21 21 21 20 20 20 19 19 20 21 22 22 21 19 18 17 17 16 16 18 20 20 20 21 22 22 22 23 25 25 24 24 25 25 25 25 24 21 23 25 24 24 25 25 23 16 9 8 13 16 19 24 29 31 32 34 34 34 32 30 28 28 27 28 31 32
25 26 26 25 23 23 23 22 22 22 23 23 23 23 22 21 21 22 22 22 23 23 23 23 22 21 20 20 23 25 25 23 22 20 20 19 17 16 16 17 18 20 20 20 21 21 22 24 25 24 23 23 25 25 25 24 22 22 23 23 23 24 26 27 23 16 11 12 16 17 21 28 30 32 35 36 34 32 31 29 29 29 29 30 31
25 25 26 25 24 23 23 22 22 23 24 24 23 23 23 23 23 24 23 23 23 23 24 24 24 23 22 21 23 26 27 26 25 23 22 21 20 18 17 16 17 19 20 20 20 21 21 24 25 24 22 22 24 26 25 24 24 23 22 23 25 27 28 28 26 21 16 15 18 21 26 30 31 31 33 32 32 33 32 31 30 30 30 30 30
25 25 25 25 24 23 22 22 23 24 24 24 23 23 24 25 24 25 25 25 24 23 24 24 25 25 24 21 21 25 28 28 28 27 25 23 21 20 19 17 17 18 19 21 21 21 22 24 25 24 22 24 26 27 25 24 24 24 25 26 29 30 28 26 26 25 22 21 22 23 25 28 29 29 29 28 29 30 29 31 32 31 30 31 31
26 25 24 25 24 24 23 23 24 24 24 24 23 24 25 25 26 26 26 28 27 26 25 23 22 22 22 22 21 24 29 31 31 30 28 26 24 21 19 18 17 17 17 20 21 21 22 23 25 24 23 25 27 26 23 22 23 25 27 30 31 30 27 25 25 26 27 26 25 25 25 25 26 28 31 33 33 31 28 27 29 31 31 32 31
26 25 24 24 23 23 23 23 23 23 23 23 23 25 25 25 26 26 27 29 30 30 28 25 22 20 21 22 21 24 30 33 33 32 30 28 27 24 21 18 18 18 17 18 20 21 21 22 23 23 24 25 26 26 24 25 26 27 29 32 32 29 27 25 25 28 29 26 25 26 27 27 26 26 30 32 31 29 29 27 26 27 30 32 33
26 25 24 23 22 22 22 22 22 23 22 23 24 25 25 25 26 26 28 29 30 30 29 27 24 22 21 21 21 23 29 34 35 34 32 31 28 26 23 20 18 18 18 18 18 20 21 21 22 23 24 25 24 25 27 28 28 28 30 32 31 29 27 25 24 27 28 25 24 26 27 26 25 24 25 25 23 24 28 30 28 29 31 32 33
25 24 23 22 21 21 21 21 22 22 22 23 24 25 25 25 25 26 28 29 29 29 29 29 28 26 23 22 21 22 27 34 35 34 33 32 30 27 24 22 19 18 18 18 19 19 19 20 22 23 24 23 23 24 26 28 28 28 29 29 29 28 26 24 24 25 25 23 22 24 24 24 25 24 24 28 30 30 30 29 28 30 32 32 33
24 23 22 21 20 20 20 21 22 23 23 23 23 25 26 25 25 25 26 28 29 29 30 30 30 28 24 23 23 23 27 34 36 34 32 30 29 26 24 22 19 17 16 17 19 19 19 19 19 21 21 22 22 23 24 26 27 28 28 27 26 26 24 22 23 25 24 22 21 21 20 21 26 28 29 33 36 33 31 31 28 27 28 26 26
25 24 23 22 21 21 21 22 23 23 23 22 22 24 25 26 25 25 25 27 28 29 30 30 30 29 25 23 22 24 30 37 39 35 32 30 27 25 23 21 20 18 16 16 17 18 19 20 20 19 19 21 24 24 25 26 27 27 27 26 26 26 25 22 21 23 23 21 20 22 21 21 27 32 32 33 33 31 34 36 30 26 27 23 18
27 27 26 25 24 23 23 24 25 25 24 23 22 22 24 25 26 26 25 26 27 29 30 30 29 30 28 25 23 25 32 39 41 37 33 30 28 24 22 23 23 20 17 17 16 17 19 22 23 22 20 21 24 26 26 27 27 26 27 27 28 28 27 25 24 23 23 22 21 21 23 23 25 30 32 32 33 33 33 34 32 30 29 26 22
28 27 26 25 24 24 24 26 27 27 26 24 23 22 23 24 25 25 25 26 26 28 30 30 30 30 30 28 27 28 34 40 41 39 35 31 29 25 22 24 24 19 17 17 15 15 16 19 23 24 22 21 23 26 26 26 27 26 26 27 28 27 26 27 29 29 29 29 25 24 28 29 26 30 36 37 36 34 31 31 32 33 31 30 30
27 26 25 25 25 25 26 27 28 28 27 26 26 25 25 24 23 23 24 25 27 27 28 30 30 30 29 29 29 30 35 40 41 40 37 33 30 28 25 24 23 20 18 18 16 13 12 14 17 21 22 21 22 24 25 26 25 25 26 26 26 27 26 28 31 32 32 33 30 29 33 36 35 36 38 39 38 37 35 34 35 36 35 35 36
28 28 28 28 27 27 28 28 29 29 28 28 28 27 27 25 24 23 23 25 26 26 27 28 30 30 30 30 30 30 34 40 41 40 39 35 32 31 28 26 25 24 22 21 20 18 15 12 12 15 18 20 22 24 24 24 24 24 24 23 23 25 26 28 30 30 31 32 32 33 35 37 38 36 35 37 39 39 40 42 41 39 35 31 30
28 29 29 29 29 29 29 29 29 29 28 28 28 28 27 26 25 24 24 25 26 26 26 26 28 30 30 30 31 31 34 40 41 40 39 36 34 34 32 30 29 28 27 26 24 22 20 17 15 14 14 16 20 22 23 23 23 22 21 18 18 20 22 25 27 27 28 30 31 32 32 34 33 32 32 37 39 38 36 35 33 32 29 25 23
27 28 29 29 29 30 30 29 29 29 28 29 28 28 27 26 25 24 24 25 26 26 26 26 27 29 30 31 32 32 34 38 41 40 39 37 35 35 33 31 31 31 30 30 28 26 23 21 19 17 15 15 17 19 21 22 22 20 18 17 16 16 17 20 22 22 24 27 29 28 28 28 27 28 31 36 40 39 33 28 28 29 26 21 17
27 28 29 29 29 29 29 29 29 29 29 29 28 28 27 27 25 24 24 25 25 26 26 27 28 29 30 31 32 32 34 36 39 40 40 37 35 35 33 31 31 33 33 32 32 30 27 25 23 20 17 15 17 18 19 21 22 19 18 17 15 12 12 14 16 17 19 21 23 25 26 25 21 21 26 31 37 41 36 32 34 35 28 22 19
26 26 28 28 27 27 28 28 28 29 29 29 29 29 28 28 26 25 26 26 26 26 26 27 29 30 31 31 32 33 34 36 37 38 39 39 36 35 34 32 31 33 33 33 34 34 33 31 29 25 18 13 15 17 16 20 23 21 18 16 14 11 10 12 14 15 16 15 16 17 19 21 20 19 20 21 26 36 40 36 36 37 32 26 24
24 23 24 25 26 25 26 27 28 29 29 29 30 30 29 29 29 28 29 29 29 29 28 28 29 30 32 33 33 33 35 36 36 35 36 38 37 36 36 33 30 30 31 32 35 37 38 37 36 31 23 15 12 13 14 18 21 20 18 17 14 12 11 12 13 14 13 13 12 11 11 14 16 17 18 17 16 24 34 35 33 36 34 30 31
22 21 20 22 23 23 25 26 27 28 28 29 30 30 30 30 29 29 30 30 31 31 30 29 29 30 32 33 34 34 34 35 37 36 35 35 35 36 36 34 29 28 31 33 35 37 39 40 39 35 28 20 14 8 8 11 13 14 15 14 14 14 14 13 13 13 13 13 12 11 11 11 10 11 16 19 15 14 19 24 28 31 31 31 33
21 20 19 19 20 20 22 24 25 26 27 29 30 30 30 30 30 30 30 30 31 31 31 30 30 31 32 33 34 35 35 35 37 37 36 35 34 33 33 33 31 29 31 34 35 36 37 39 39 37 32 26 18 9 2 4 6 8 10 11 12 14 14 14 14 14 14 15 15 15 15 14 13 12 12 14 15 14 14 18 23 24 24 27 31
20 21 20 19 19 19 20 21 22 23 24 27 29 29 29 29 29 29 29 29 30 30 30 30 31 31 32 33 34 35 35 36 36 37 37 36 35 33 31 31 32 32 32 33 34 34 35 38 39 38 36 34 28 21 15 11 11 13 15 16 17 17 17 17 17 16 17 18 18 19 19 19 20 18 15 13 13 14 15 16 18 20 21 22 24
19 20 20 20 20 19 19 19 19 20 21 23 26 28 29 28 28 29 29 29 29 29 29 29 30 30 31 32 33 33 34 35 36 36 36 36 36 35 33 31 31 32 31 32 33 33 34 37 39 40 40 39 37 33 29 25 21 20 19 19 19 18 19 19 19 20 20 20 21 22 21 21 23 24 22 21 20 20 20 20 21 22 23 23 21
17 18 19 20 20 19 17 17 17 18 19 20 22 24 27 27 27 28 28 28 28 28 27 28 28 28 29 30 32 32 33 34 35 35 35 35 35 35 35 33 32 31 31 31 32 32 32 34 37 40 42 42 42 40 38 34 30 26 22 20 20 20 20 20 21 22 23 22 22 22 22 22 24 25 26 28 28 28 29 30 30 30 31 32 30
15 15 16 17 18 18 16 15 16 17 18 18 19 20 22 24 25 26 27 27 27 27 27 27 27 27 28 29 29 30 31 32 34 34 34 34 34 33 33 34 33 32 31 31 31 31 31 32 34 37 39 42 43 43 41 39 38 35 31 28 26 25 24 24 23 24 23 21 21 21 21 22 22 22 25 28 29 30 31 33 34 34 35 38 38
14 13 13 14 15 16 15 15 15 16 17 17 17 17 18 20 22 23 24 25 26 26 26 26 26 26 27 27 27 28 30 30 31 32 33 34 34 33 32 32 32 32 32 31 31 32 33 32 33 34 35 37 39 40 41 42 42 40 36 35 34 32 30 28 27 26 24 21 21 20 20 22 23 24 25 26 26 25 26 29 31 31 32 35 37
13 11 11 11 12 13 14 14 14 15 15 16 16 15 16 17 18 20 21 22 23 24 25 25 25 23 24 25 26 26 27 28 28 29 30 32 33 33 32 31 31 31 31 31 31 33 35 35 35 35 36 37 38 38 39 39 40 39 37 36 36 35 34 33 31 30 26 23 21 21 21 22 24 24 25 25 25 23 22 24 25 25 27 30 31
14 12 11 10 10 11 12 13 12 13 14 15 15 15 15 16 16 17 17 18 19 20 22 24 25 24 22 24 25 24 23 24 25 25 27 28 29 30 31 31 30 30 30 30 32 34 36 37 36 35 35 36 36 36 36 35 36 36 36 36 35 35 34 33 33 31 30 28 27 26 25 25 25 25 24 24 24 22 22 24 24 23 26 28 26
18 16 14 13 12 11 11 12 11 11 12 14 14 14 14 15 15 15 15 15 15 17 18 21 24 25 24 23 24 23 22 20 21 23 24 25 26 27 28 29 30 30 30 32 34 35 34 33 33 32 31 31 31 31 31 32 32 32 33 33 34 33 32 31 29 27 27 28 28 27 26 26 26 25 24 23 21 19 18 19 20 21 24 26 25
17 16 16 16 16 14 13 12 11 11 12 14 15 14 13 14 15 16 15 14 13 14 15 17 20 24 25 23 21 21 21 21 20 21 23 24 25 26 26 27 29 30 31 33 34 33 31 29 29 29 29 29 29 28 28 29 29 29 29 30 31 31 30 28 26 24 23 22 22 23 24 23 22 20 18 17 15 13 11 11 13 16 20 23 23
16 15 15 16 16 15 14 13 12 12 13 14 15 15 14 14 15 16 17 16 14 14 14 15 17 20 23 23 21 20 20 21 21 22 23 23 24 24 25 26 28 29 31 33 33 30 29 27 27 27 27 27 27 28 28 28 27 27 27 27 27 27 26 25 23 22 22 21 19 18 18 17 16 15 12 11 10 9 9 11 12 14 18 20 22
16 14 14 15 16 15 14 13 13 13 13 13 14 14 13 13 13 15 16 17 15 14 15 15 15 16 20 22 22 20 20 20 20 21 22 23 23 23 24 25 27 28 31 33 31 28 27 27 25 25 26 26 26 27 27 27 27 26 26 25 25 25 24 23 22 21 21 20 19 17 16 14 14 14 13 11 8 7 9 13 15 15 17 18 18
15 13 12 13 14 15 14 14 13 13 13 12 12 13 13 11 11 13 15 16 15 14 14 14 14 14 16 20 22 21 21 21 21 21 21 23 23 23 24 25 27 29 31 32 30 28 28 27 26 26 26 26 26 27 27 27 27 26 25 25 24 24 24 24 23 22 21 20 20 19 18 17 16 16 16 15 13 11 11 14 15 15 15 15 14
13 12 11 11 13 14 14 13 13 12 12 10 10 11 12 10 9 10 13 15 15 14 13 13 13 12 13 16 19 21 21 22 21 21 21 22 22 23 25 27 28 29 30 30 30 29 28 27 27 27 26 26 26 26 27 28 27 26 24 24 24 24 23 23 23 22 20 20 21 20 19 19 18 18 18 18 18 17 16 14 13 12 11 11 12
13 13 11 10 11 13 14 13 12 11 11 9 9 9 11 10 8 8 10 12 13 13 12 11 11 11 11 12 15 18 19 20 20 19 19 20 21 23 26 27 26 25 26 27 28 27 26 25 25 25 25 24 24 25 25 25 26 25 24 23 23 24 23 21 21 21 20 19 19 18 18 18 18 17 18 19 18 18 17 14 12 11 9 9 10
14 13 11 9 9 12 14 13 12 11 10 8 7 7 9 9 8 7 7 8 11 12 12 11 11 11 10 10 11 14 16 18 19 19 18 17 19 22 23 23 22 22 23 24 25 25 25 24 23 22 22 21 21 22 23 23 23 24 24 23 23 24 23 21 19 19 19 18 18 17 17 17 16 15 15 16 16 16 15 14 13 12 13 14 14
12 10 8 7 7 10 13 13 11 10 9 7 6 6 7 8 8 6 5 5 7 9 10 10 10 10 10 10 9 10 13 16 18 19 18 17 18 20 20 20 20 21 21 21 22 23 23 22 21 20 19 18 18 19 20 20 21 22 23 22 22 23 23 22 20 19 18 18 18 17 17 17 16 16 15 14 14 14 14 13 12 13 14 16 18
11 11 10 10 10 11 12 11 9 8 7 6 6 6 6 7 6 6 5 5 5 5 7 8 9 9 9 9 8 9 11 14 17 18 17 17 17 17 17 18 18 18 18 19 19 20 21 21 21 19 17 17 16 16 17 17 18 18 19 20 20 20 21 21 20 19 18 17 16 16 16 15 15 15 14 14 13 13 12 11 11 11 12 13 16
12 14 14 13 12 12 11 10 9 8 6 5 6 6 6 7 6 5 6 6 6 5 4 5 7 8 8 7 8 9 11 12 14 14 15 16 16 16 15 15 15 16 16 16 17 18 19 19 19 19 17 16 15 14 14 15 16 16 17 17 18 17 17 17 18 17 16 15 14 14 15 15 14 14 13 13 13 12 12 11 10 10 10 10 12
12 14 13 12 11 10 10 10 10 9 7 5 5 6 8 7 6 5 6 6 7 7 6 5 4 6 6 6 6 8 9 10 11 12 13 14 15 16 15 14 13 13 14 14 15 16 16 16 17 17 18 17 15 13 13 14 15 16 16 16 17 17 16 15 15 15 15 14 13 14 14 15 15 14 13 11 10 9 10 10 10 10 9 9 8
12 12 11 11 10 8 8 8 8 8 7 7 8 8 7 6 5 5 5 5 6 6 7 6 5 5 5 6 5 6 7 8 9 10 11 12 13 14 15 14 12 11 11 12 13 14 14 14 14 15 16 16 15 14 14 14 14 14 13 14 16 17 17 16 15 14 14 14 14 14 13 12 13 14 13 11 9 8 8 8 9 8 7 7 7
12 12 10 9 8 7 7 7 6 5 6 7 8 7 6 6 6 6 5 3 3 4 6 7 6 5 6 6 5 5 5 5 7 9 10 11 10 11 13 13 12 11 10 11 12 11 11 13 14 14 15 15 15 15 15 14 14 13 13 13 13 15 16 16 15 14 14 13 13 12 12 11 11 11 12 11 10 8 7 7 7 8 7 7 6
11 10 9 8 7 6 6 6 5 5 5 6 7 8 6 6 6 8 6 3 2 2 4 5 5 5 5 6 5 5 5 4 4 7 9 10 9 9 10 12 13 12 11 11 11 10 10 11 13 14 14 14 14 14 15 15 14 14 13 13 12 13 13 14 14 13 12 12 11 11 11 11 10 10 10 10 9 8 8 8 8 8 9 9 8
10 9 9 8 7 5 5 5 4 5 5 5 7 7 7 6 7 9 8 4 3 3 4 4 4 4 4 4 4 5 5 4 3 4 7 9 9 9 8 9 11 12 12 11 10 9 10 11 11 12 12 12 12 13 14 14 14 13 12 11 11 11 12 12 12 11 10 10 10 10 10 10 9 8 8 8 8 7 7 8 7 7 8 8 8
9 8 7 7 6 4 3 3 4 5 6 6 5 6 7 7 7 9 8 6 4 4 4 4 3 3 3 4 4 4 4 4 2 2 5 7 9 9 8 8 9 10 11 11 10 9 9 9 9 10 10 10 11 12 14 15 14 13 11 10 9 9 10 10 10 9 8 8 9 9 9 9 9 7 6 6 6 6 6 5 5 5 6 6 6
8 7 6 5 6 5 4 3 3 5 7 7 6 5 6 6 6 8 8 8 7 6 4 4 4 4 4 5 5 4 4 4 2 1 2 4 6 7 8 8 8 8 8 9 9 9 9 8 8 8 9 9 9 10 12 14 14 12 11 10 10 10 10 10 9 9 9 8 8 8 7 7 7 6 6 5 5 5 5 5 4 3 3 3 4
8 9 7 6 6 5 3 3 3 4 7 8 7 7 7 6 6 7 8 8 8 7 6 5 5 5 4 4 5 5 5 5 3 1 1 1 3 5 6 6 7 7 6 6 7 8 8 7 6 7 9 9 9 9 11 13 12 11 10 10 10 9 9 10 10 10 10 9 8 7 7 7 6 6 6 6 5 5 5 5 5 4 3 2 2
7 9 9 7 7 5 3 3 5 5 6 9 9 8 7 5 4 5 6 6 6 6 5 5 4 4 3 4 4 4 5 5 4 2 1 3 2 1 3 3 4 5 5 4 4 5 6 6 5 6 7 8 9 9 10 11 11 9 9 9 9 9 9 9 10 11 11 9 8 6 5 5 6 6 5 5 5 5 4 4 4 4 3 3 2
8 10 9 8 8 7 5 5 6 6 6 8 10 9 7 5 3 3 4 5 5 4 4 3 2 2 3 3 4 6 6 5 4 3 1 2 4 3 2 1 0 1 2 3 3 3 4 5 5 5 6 6 7 7 8 10 10 8 8 8 8 8 9 9 10 11 11 9 7 6 5 4 5 5 5 5 5 5 5 5 5 4 4 3 3
10 12 11 10 10 10 9 8 8 7 6 7 10 10 9 7 5 4 4 4 4 3 3 1 1 1 2 3 4 5 6 6 5 4 3 2 2 4 5 4 3 3 2 1 2 2 2 3 4 5 5 5 5 6 7 8 7 6 7 7 7 8 8 9 10 11 11 10 8 6 5 5 5 5 5 5 5 5 5 6 5 5 4 4 4
Wind_Direction
80 77 73 70 67 62 57 57 58 55 49 43 38 34 32 29 23 19 18 16 13 12 13 15 12 14 19 17 14 14 10 3 356 347 337 327 318 310 303 294 284 278 273 266 261 257 251 246 245 245 242 239 237 235 232 230 225 222 223 220 219 220 211 202 206 216 212 215 214 211 211 209 209 211 213 215 214 214 216 218 217 212 206 205 205
80 75 72 70 67 63 58 56 56 54 50 45 40 37 33 30 25 23 22 19 19 20 23 23 20 22 25 16 9 12 12 8 3 355 349 344 335 325 312 298 290 288 282 273 265 259 251 245 245 246 243 238 234 231 230 227 221 215 215 218 222 222 215 208 208 209 208 210 213 214 208 204 204 207 210 213 212 209 209 212 212 210 206 204 203
80 75 72 70 68 65 59 56 54 52 50 46 41 38 35 31 28 27 25 21 21 26 28 28 26 26 28 18 7 8 10 8 5 359 354 350 343 337 324 306 298 295 289 282 273 262 250 245 246 245 242 237 235 233 230 228 225 219 215 216 221 223 219 214 209 201 190 192 198 201 201 201 204 208 210 213 211 206 206 208 208 206 205 205 204
79 75 72 69 67 64 59 54 53 51 49 46 43 39 37 35 32 29 27 22 20 24 27 28 27 25 28 22 8 6 10 9 5 2 358 353 346 340 331 317 306 300 293 288 282 269 256 250 251 249 239 233 236 236 231 229 227 223 218 217 219 222 219 212 207 198 185 184 193 198 198 199 203 209 209 207 206 205 205 205 205 205 204 205 205
78 75 71 68 64 62 59 55 53 52 50 48 45 43 41 39 36 31 28 26 23 24 24 25 24 22 25 23 9 5 10 9 5 2 358 354 349 343 336 325 312 305 297 291 284 274 266 260 259 254 239 232 237 237 230 226 225 222 221 219 217 218 214 205 202 203 197 190 191 197 199 196 197 203 205 201 199 201 201 202 203 203 204 204 205
78 74 71 68 65 62 59 57 56 54 53 51 48 47 45 42 39 35 32 31 30 29 26 23 19 16 18 19 12 7 9 9 5 2 357 352 348 343 338 330 319 310 300 294 287 278 270 265 260 253 239 232 234 235 230 224 218 216 219 220 218 216 212 205 200 203 205 199 191 191 195 197 196 199 204 203 197 193 191 197 202 202 203 203 203
75 73 71 69 67 64 62 60 58 55 54 53 50 49 47 45 42 38 35 34 33 31 29 24 18 15 13 14 11 8 8 8 5 1 357 353 347 341 336 332 324 314 304 298 292 284 276 269 264 256 246 239 237 235 234 229 221 215 216 219 218 214 210 205 197 196 203 201 193 190 193 198 199 199 203 202 197 193 188 187 193 199 203 204 203
75 71 70 69 67 65 63 60 57 55 55 55 52 49 48 45 43 40 38 36 34 31 29 26 22 19 16 13 11 8 8 7 5 1 357 353 347 340 334 330 324 316 309 304 297 290 283 274 266 258 251 248 245 240 238 236 227 220 217 217 217 212 207 204 194 192 197 198 194 192 192 196 198 197 196 190 187 196 196 189 190 196 201 206 207
75 71 70 69 68 67 65 62 59 56 56 55 53 50 48 46 44 41 38 36 33 31 30 27 25 21 16 13 12 10 8 5 3 1 359 354 346 339 333 330 325 316 309 306 300 293 289 283 273 266 261 257 252 247 244 240 233 227 223 220 218 215 210 207 197 192 195 196 192 189 187 193 194 187 183 184 189 198 197 193 195 197 199 204 208
74 71 67 64 64 65 64 62 59 56 56 55 54 51 48 47 45 42 39 36 33 31 29 28 27 22 15 12 10 10 7 2 2 4 4 358 349 339 332 329 325 317 308 305 302 297 294 292 283 274 271 266 259 252 247 242 239 237 233 227 224 221 216 211 204 198 196 194 191 186 184 192 195 190 188 193 197 195 189 191 199 197 194 199 206
74 69 65 65 65 65 64 62 57 54 54 56 55 52 49 47 47 44 41 37 34 32 30 29 27 23 19 14 10 9 5 2 5 8 7 4 356 343 336 335 331 323 313 303 301 300 295 289 281 270 265 263 260 259 253 246 244 243 238 235 235 231 223 216 210 204 199 196 195 192 191 196 198 197 197 197 197 193 189 191 195 191 187 191 199
76 71 67 67 66 65 64 61 57 54 54 55 55 52 48 47 47 45 42 38 35 33 31 29 27 25 23 19 13 10 6 5 9 11 9 9 3 352 351 352 345 337 329 317 308 305 300 292 283 272 263 259 259 260 256 250 248 247 243 242 243 238 229 222 218 211 203 202 201 198 200 205 204 201 201 198 196 196 193 191 192 192 190 192 195
76 72 67 64 64 64 63 61 59 57 56 56 54 51 47 45 43 42 41 38 36 34 32 30 28 26 24 22 17 14 9 8 11 13 12 12 8 4 8 6 358 354 349 338 325 312 303 298 291 280 271 264 260 259 257 252 250 249 245 241 240 239 234 230 229 226 217 209 206 203 204 207 209 208 207 202 196 193 191 190 194 195 194 195 200
74 72 68 64 64 65 65 64 61 59 58 56 52 48 46 44 42 41 39 37 35 34 31 29 28 26 25 23 20 17 12 11 13 15 15 16 14 13 15 12 8 7 3 356 351 339 318 304 297 289 280 271 262 258 258 257 256 253 249 241 235 233 233 231 230 228 221 215 212 213 213 212 212 213 211 205 198 193 191 192 195 198 198 201 205
78 76 71 67 66 67 66 65 63 60 58 54 49 46 45 45 45 43 40 37 34 33 31 29 27 26 25 23 21 19 15 14 16 17 17 19 20 19 19 16 13 12 10 7 5 359 346 326 307 294 284 277 271 266 263 262 260 257 253 246 236 230 229 229 227 222 218 217 218 220 222 220 217 216 213 208 203 199 199 200 200 199 199 200 204
83 78 72 69 68 68 68 67 65 62 58 53 48 45 43 44 45 43 42 39 36 34 32 30 27 26 25 24 22 19 17 18 19 19 18 21 23 23 22 20 18 17 16 14 11 8 2 350 332 312 291 277 274 272 269 264 256 249 247 243 234 229 227 227 228 225 221 222 223 223 225 226 223 221 218 213 208 206 208 208 201 195 191 191 195
85 79 75 73 72 71 70 69 66 62 57 52 48 45 43 44 44 43 42 39 36 35 34 33 30 27 26 24 22 19 19 20 22 22 21 22 25 25 23 21 20 19 19 18 15 14 11 5 353 335 310 284 272 268 265 258 247 237 237 237 229 225 223 223 225 223 220 221 223 225 228 229 230 230 226 219 212 209 206 203 197 191 187 186 186
88 83 79 77 76 75 73 70 67 63 58 54 50 47 45 45 46 46 45 41 38 36 36 38 36 31 28 26 24 21 20 21 25 26 24 24 26 26 25 22 20 20 20 19 19 17 15 14 8 354 331 301 277 266 259 251 241 230 227 227 219 212 214 215 213 209 207 211 215 219 223 222 221 223 220 217 215 212 206 201 199 194 190 190 185
93 88 82 78 77 77 76 73 70 67 62 58 54 51 49 49 50 51 48 45 42 40 39 40 38 35 32 29 27 25 22 22 26 28 27 27 28 28 28 25 21 20 20 19 19 20 18 16 15 7 353 323 286 270 254 239 236 232 222 210 197 190 193 193 194 193 192 194 198 206 212 212 209 205 199 201 209 209 208 208 203 195 192 191 182
97 94 86 80 77 76 76 75 73 70 66 62 59 56 54 52 52 50 48 46 45 43 42 41 39 37 35 32 30 28 24 24 27 29 29 29 29 30 32 30 23 21 22 21 20 20 20 18 18 14 6 350 313 278 245 226 225 223 210 195 181 171 167 166 172 177 174 171 173 174 182 195 204 202 196 196 199 200 204 210 207 198 195 191 183
98 98 93 85 79 75 74 74 73 72 69 66 63 60 57 54 52 50 48 46 45 43 42 42 41 39 36 33 32 30 27 26 28 30 30 30 30 31 33 33 27 23 26 27 24 22 21 21 21 21 18 9 351 309 241 221 218 207 194 187 176 165 157 149 148 152 149 144 142 137 138 152 166 177 189 198 199 191 195 203 204 201 198 192 185
96 97 96 91 85 78 74 72 72 71 70 67 65 62 59 56 54 51 48 46 44 42 41 40 40 39 37 35 32 31 30 29 29 30 32 32 31 32 34 36 33 30 29 30 28 26 25 25 27 29 32 31 25 25 83 179 195 181 172 167 161 158 154 146 139 133 127 123 118 112 111 116 120 129 155 180 189 190 187 189 194 199 199 192 186
99 98 98 95 91 84 77 73 71 69 68 68 66 63 60 57 55 52 49 47 45 42 40 39 38 36 34 33 32 31 31 31 31 31 32 33 33 34 36 38 39 37 35 32 31 31 31 33 35 37 41 45 48 54 66 86 114 127 131 134 138 143 144 141 136 126 114 109 104 96 92 94 99 106 117 127 140 155 160 162 173 182 182 180 180
105 101 98 97 93 87 81 76 72 69 67 67 66 64 60 57 55 53 51 48 46 42 39 38 36 34 31 29 30 30 30 31 32 32 33 34 34 34 36 38 40 42 39 36 37 37 38 40 42 43 45 48 54 59 61 66 83 102 115 122 124 124 123 122 123 118 107 98 92 86 83 86 90 94 102 109 113 123 129 129 133 139 143 147 150
109 102 98 97 94 88 84 80 74 70 66 62 62 61 58 55 54 52 51 50 47 44 40 38 36 34 30 28 28 29 29 30 31 31 32 33 33 35 36 38 40 42 41 39 41 43 44 46 48 49 47 47 51 55 54 55 66 79 90 100 104 103 101 100 103 104 96 87 87 87 84 86 89 92 97 103 107 110 112 111 110 111 113 115 117
115 105 100 99 94 87 83 80 74 70 64 59 58 57 54 53 52 51 51 51 49 46 42 39 37 34 31 29 29 30 30 29 29 29 30 30 31 32 34 36 39 41 41 41 43 45 47 48 48 50 49 48 50 50 48 50 58 63 67 75 81 84 85 84 84 85 82 79 81 84 86 90 93 95 97 99 100 102 104 104 103 100 100 100 99
122 110 104 103 96 86 80 76 73 70 64 58 55 54 52 50 49 49 49 49 48 47 43 39 36 33 31 31 32 34 33 30 28 28 28 29 29 29 31 33 35 37 39 38 40 42 45 47 47 48 49 49 51 51 48 48 51 52 54 61 68 72 76 78 76 74 72 73 76 80 87 94 95 94 94 92 92 95 101 104 102 100 100 98 94
122 115 110 108 99 87 80 75 71 69 67 60 55 52 51 47 45 45 46 46 46 46 44 40 37 34 32 31 32 34 35 33 31 29 28 29 29 29 29 30 32 35 36 36 38 41 44 46 46 45 45 45 46 48 49 49 49 47 46 50 58 66 72 74 74 70 68 71 74 77 82 88 89 90 90 89 89 93 100 102 99 98 102 102 98
113 112 113 115 109 97 87 79 73 70 68 64 57 53 53 50 46 43 43 44 46 47 47 44 40 38 37 35 34 33 33 33 32 31 31 31 31 31 31 31 32 35 37 39 42 42 42 42 41 40 40 41 41 42 44 46 48 48 46 46 49 56 62 65 66 66 66 68 69 69 73 76 79 83 84 82 82 87 95 100 100 98 99 100 98
106 104 104 109 115 111 98 88 80 74 71 67 61 57 57 57 53 47 42 41 44 48 49 47 43 41 41 40 40 39 36 34 32 32 32 32 33 34 35 35 35 36 38 41 43 41 39 38 37 36 37 38 38 38 39 41 44 47 47 47 47 50 53 56 59 63 67 68 67 66 69 71 71 74 77 76 76 77 83 92 99 103 104 103 101
107 104 103 107 112 111 104 96 89 83 81 76 68 65 67 67 62 57 51 47 46 49 50 48 46 44 42 41 40 40 38 36 36 37 36 34 33 34 35 37 38 37 38 41 42 39 37 36 35 35 36 37 38 38 39 40 41 42 45 46 46 47 49 50 53 57 62 64 64 65 67 67 66 68 73 76 77 79 84 92 102 110 112 112 111
112 105 104 111 114 112 106 100 93 90 90 85 74 69 73 75 68 62 58 56 54 53 51 48 47 46 44 42 40 38 36 36 38 41 40 37 36 37 38 40 41 40 40 42 41 38 36 36 34 33 33 35 36 38 39 40 41 42 44 46 45 45 47 49 51 56 57 57 57 60 61 59 58 61 70 78 76 76 95 112 117 118 117 116 117
121 111 105 112 120 120 112 105 99 95 97 92 79 73 76 77 71 66 63 62 61 57 53 49 47 45 45 45 45 43 41 39 39 41 41 40 40 40 42 43 44 43 44 44 42 37 35 36 35 34 35 35 36 38 40 41 42 44 46 46 46 47 50 53 55 56 57 56 58 63 63 61 62 64 69 77 76 77 106 121 122 120 119 118 118
125 120 110 114 124 126 117 109 106 104 104 98 83 76 79 79 72 69 66 64 63 60 55 51 49 46 44 44 46 47 47 46 45 45 44 43 43 44 46 48 47 46 45 45 43 39 37 36 36 35 36 36 38 40 41 41 43 45 46 48 50 51 51 53 53 54 57 58 61 66 67 65 68 71 72 75 77 83 106 125 128 124 121 120 119
122 126 121 118 128 133 124 113 110 112 110 103 89 81 82 81 75 72 71 68 65 64 59 54 50 48 46 44 44 47 48 49 49 48 47 45 44 45 48 48 47 45 44 44 44 43 41 40 40 39 40 41 43 44 43 40 39 40 43 46 48 47 45 47 49 53 59 61 61 64 67 66 67 71 71 71 74 78 90 112 126 128 124 121 122
117 126 128 122 126 135 133 121 113 114 113 106 97 89 86 83 77 74 76 75 71 68 66 62 54 49 47 45 44 45 48 48 48 48 48 46 43 45 48 49 46 44 44 44 45 45 43 42 41 41 41 43 43 41 38 36 36 38 41 43 44 43 43 47 53 57 59 59 59 60 62 63 64 67 68 68 71 75 83 96 111 124 136 141 140
111 119 127 126 123 131 136 129 114 109 110 107 103 98 92 88 83 76 78 81 76 69 66 64 58 51 46 44 43 44 47 49 47 46 46 47 45 46 49 49 47 47 46 46 46 46 45 43 42 41 40 40 39 37 37 39 43 46 47 47 46 45 47 52 59 60 59 59 60 61 62 62 62 64 68 71 72 75 80 87 98 116 133 141 142
102 100 109 121 118 122 133 133 118 105 103 99 97 101 100 93 85 77 75 83 82 72 64 59 56 50 45 43 43 43 44 45 45 44 43 43 45 47 49 50 49 47 45 46 47 47 47 46 45 45 44 43 42 42 45 49 51 52 51 51 51 50 50 52 54 55 57 59 60 59 59 60 59 60 67 73 76 78 81 86 98 113 124 131 133
101 91 95 110 113 111 119 124 115 100 90 74 60 70 94 104 95 79 73 73 74 74 67 58 53 48 43 40 42 42 41 42 44 45 44 42 42 45 48 51 52 48 45 45 47 47 47 47 47 49 50 48 48 50 51 51 50 50 50 50 49 49 49 49 49 50 52 54 54 53 51 50 52 58 65 73 78 82 83 87 98 109 116 123 127
113 109 106 109 110 106 105 106 99 87 77 50 32 51 95 115 107 83 72 64 58 62 67 59 53 50 46 43 43 41 41 45 47 48 47 47 45 42 42 46 50 51 47 46 47 46 46 46 48 51 53 53 54 55 52 49 48 50 50 49 48 48 48 46 46 48 51 51 51 51 49 47 49 53 59 66 72 75 76 80 90 96 98 107 120
124 124 119 113 112 112 108 101 91 83 78 71 68 89 114 121 105 84 73 59 48 47 46 44 54 57 48 43 45 42 42 49 51 49 49 51 49 46 42 40 44 49 49 48 46 44 42 41 44 49 54 57 59 61 57 52 51 52 53 52 51 51 52 50 47 49 53 54 55 55 52 48 49 50 52 58 63 64 65 74 87 96 95 97 112
137 136 128 117 113 114 113 108 102 94 87 85 88 102 117 114 90 74 69 57 41 35 35 41 60 71 56 46 47 44 43 50 54 50 50 53 53 50 47 42 39 43 48 46 41 37 36 38 42 49 55 57 59 60 59 56 54 54 54 54 53 52 54 56 57 58 59 59 58 58 54 49 46 47 48 53 57 57 55 63 76 88 92 95 105
141 136 125 114 109 111 116 119 118 107 91 86 89 96 105 99 73 51 47 55 44 31 38 46 57 68 65 57 54 48 39 46 57 55 51 52 52 52 51 48 42 37 35 36 36 36 40 44 48 54 57 56 55 54 54 52 50 49 48 48 48 47 47 49 51 55 58 59 57 58 57 54 49 46 47 50 55 55 54 61 74 82 86 96 112
143 138 127 119 115 120 129 131 121 107 101 100 98 98 105 105 78 51 46 70 94 51 46 46 49 63 67 59 55 49 35 34 58 61 54 52 52 51 52 52 47 39 33 34 42 51 57 55 54 56 57 54 51 49 47 42 38 36 33 33 36 38 38 38 38 39 42 46 48 49 50 51 52 50 49 52 58 64 67 73 82 86 89 96 106
147 147 143 134 125 126 144 152 141 130 129 127 115 108 110 108 79 55 55 84 128 113 82 62 51 60 63 53 51 50 37 33 56 66 57 55 53 51 52 54 49 44 43 44 50 58 62 58 53 50 48 44 41 39 36 30 25 22 20 20 24 28 29 30 30 29 30 33 35 33 31 34 39 43 44 47 51 59 68 75 80 84 88 91 93
150 155 158 155 151 154 172 186 186 176 168 159 143 126 119 107 79 59 64 86 116 125 106 73 51 57 67 63 60 53 41 38 44 55 56 58 57 56 57 57 52 49 52 53 53 52 52 52 48 42 36 32 31 32 29 23 19 21 24 24 24 25 25 24 23 22 23 26 25 23 19 19 22 26 32 38 43 51 60 67 71 75 78 79 80
171 177 176 170 173 185 200 209 207 196 186 180 168 149 134 117 86 72 81 94 104 112 111 89 83 94 90 72 62 58 54 52 44 13 41 52 54 58 62 60 56 52 53 56 57 53 49 47 44 35 30 28 29 29 24 20 20 26 34 37 35 33 30 26 20 15 13 12 10 7 5 8 12 16 20 24 33 45 54 59 63 72 87 92 88
190 192 193 189 184 190 203 204 184 179 186 185 175 154 141 128 100 88 96 101 101 102 99 92 96 105 96 74 65 61 57 56 58 76 233 310 39 53 63 65 61 54 51 56 61 57 54 52 46 36 34 34 34 30 25 21 23 29 34 36 37 34 28 21 13 6 2 359 355 352 351 353 357 2 9 18 25 32 39 44 47 54 67 86 91
201 196 196 199 198 197 196 176 162 158 169 180 179 168 155 141 116 105 112 113 107 103 99 94 94 93 76 60 46 31 26 33 45 56 224 237 255 5 47 64 67 57 52 58 62 54 51 48 39 34 37 37 35 32 27 23 23 27 26 25 28 26 19 12 8 4 1 358 356 353 351 350 352 352 356 7 15 18 19 23 27 29 32 41 54
213 208 208 209 209 210 207 187 172 162 165 178 183 183 178 167 147 134 138 135 127 123 120 105 82 57 40 25 9 2 2 3 9 21 27 229 234 247 264 266 79 42 40 51 60 59 54 41 28 28 35 31 23 18 15 14 19 25 24 22 22 19 12 7 5 5 5 6 9 10 6 359 356 355 355 360 1 356 351 353 354 352 354 2 10
214 219 223 224 222 221 216 204 191 183 181 184 186 190 195 196 188 176 173 170 164 161 164 161 352 344 352 352 349 351 356 357 353 348 348 323 254 242 243 245 249 254 261 312 28 54 70 44 30 34 39 29 12 358 357 6 18 26 23 21 19 14 9 6 4 5 8 13 16 17 15 8 358 350 349 359 6 359 349 346 341 333 335 345 346
Height
831 830 830 829 828 827 826 825 824 823 822 820 819 817 816 814 812 811 810 809 807 806 804 802 801 800 798 797 795 792 790 788 786 784 782 781 779 778 776 775 773 772 772 772 771 771 771 772 772 772 773 773 773 774 776 779 782 782 782 784 786 787 786 786 787 788 789 789 790 792 794 796 798 800 803 805 806 809 811 812 814 815 816 819 821
832 831 830 830 830 829 828 827 825 824 822 821 820 818 816 814 813 811 810 809 808 806 804 802 801 799 798 797 795 792 791 789 787 784 782 780 778 776 774 773 772 770 770 770 769 769 769 769 769 769 770 770 771 772 773 776 779 779 780 782 783 784 784 784 785 787 788 788 789 792 794 794 795 798 800 801 801 804 807 809 812 813 815 817 819
833 832 831 831 831 831 829 828 827 825 823 822 820 819 817 815 814 812 811 810 808 807 805 803 801 799 798 796 794 793 791 789 786 784 782 779 777 775 773 772 770 769 768 768 768 767 767 766 766 767 768 768 769 770 771 773 776 776 777 779 780 781 782 781 782 784 785 786 787 790 793 794 795 795 796 796 798 801 804 806 809 811 813 815 817
834 833 833 832 832 832 831 829 828 826 824 823 822 820 818 816 815 813 812 810 809 807 805 803 801 799 797 796 795 793 791 789 786 784 781 779 777 775 773 771 769 768 767 767 766 766 765 764 763 764 766 767 767 768 768 770 772 773 775 776 776 777 778 778 779 781 782 783 785 786 788 790 792 794 794 795 798 800 802 804 807 809 811 813 816
835 834 834 833 833 832 832 831 829 827 826 825 823 822 820 818 816 815 813 811 809 807 805 803 802 800 798 797 796 794 791 789 786 784 781 779 776 774 772 770 768 766 765 765 764 763 763 762 761 762 764 764 764 765 766 767 768 769 771 772 772 773 774 775 777 777 777 778 782 784 786 787 789 791 792 795 798 800 801 803 805 807 810 812 814
836 835 834 834 834 833 833 832 830 829 828 826 825 823 821 819 818 816 815 812 810 808 806 804 803 801 800 798 796 794 791 789 786 784 781 778 775 773 771 769 767 765 764 762 761 761 760 760 760 761 761 761 761 762 763 764 765 766 767 768 769 770 771 772 773 774 774 774 777 781 783 785 786 787 789 791 794 795 798 801 804 806 808 810 812
837 836 835 835 835 834 834 833 832 831 829 828 827 824 823 821 819 818 816 814 811 809 807 806 804 803 801 799 797 794 791 789 786 783 781 778 775 772 770 767 765 763 762 760 759 758 758 758 758 758 758 759 759 760 760 761 762 763 764 765 767 767 768 770 771 771 772 773 774 776 779 782 784 786 787 789 792 794 795 798 802 805 806 807 810
837 837 836 836 836 835 835 834 833 832 831 829 828 826 824 823 821 820 818 815 813 811 809 807 805 804 802 799 797 795 792 789 786 783 779 777 774 771 768 766 763 761 760 758 757 757 756 756 755 756 756 756 757 758 758 758 759 760 761 763 764 764 765 767 769 769 770 771 771 773 776 780 782 784 786 789 792 793 793 794 797 800 802 805 807
838 838 837 837 837 836 836 835 834 833 832 830 829 828 826 824 823 821 819 817 815 813 811 809 806 804 802 800 798 795 793 790 787 783 780 776 773 770 767 764 762 759 757 756 755 755 755 754 753 753 754 754 755 756 756 756 757 757 757 759 760 761 762 764 766 767 768 768 769 771 774 777 778 780 782 784 785 786 790 793 795 797 799 802 805
839 839 838 838 838 837 837 836 835 834 833 832 831 829 828 826 824 822 820 819 817 814 812 810 807 805 803 801 799 796 794 791 787 784 780 776 772 769 766 763 761 758 756 754 753 752 753 753 752 751 751 751 751 752 752 753 754 754 754 755 757 758 760 762 763 764 765 766 767 768 770 772 774 775 776 777 779 782 786 789 792 795 798 801 803
840 840 840 840 839 838 838 837 836 835 834 833 832 830 829 827 825 824 822 820 818 816 813 811 809 807 805 803 800 798 795 792 787 782 779 776 772 768 765 762 760 757 755 753 751 750 750 749 748 748 748 747 747 747 748 749 750 751 752 753 753 754 756 759 761 762 763 764 764 765 767 768 769 770 772 774 777 780 782 784 787 792 794 797 799
841 841 841 841 840 839 838 837 836 835 834 834 833 832 830 828 826 825 823 821 819 817 815 812 810 809 806 804 802 800 797 792 787 781 778 774 772 768 765 762 759 757 755 753 752 750 748 746 745 745 745 745 745 744 745 746 747 748 750 750 750 751 753 755 757 759 760 761 761 762 763 764 766 768 769 770 773 776 778 780 783 787 789 791 793
842 842 843 842 841 840 839 838 837 836 835 834 834 832 831 829 828 826 824 823 821 818 816 814 812 810 808 806 804 801 798 793 787 782 778 774 771 768 765 763 760 757 756 754 753 750 747 745 743 743 743 743 743 742 743 743 744 745 747 747 748 749 750 751 752 755 756 758 758 758 759 760 763 764 765 766 768 771 774 777 779 782 784 785 787
844 844 844 843 843 842 840 839 838 837 836 835 834 833 832 830 829 828 826 824 822 820 818 816 814 812 809 807 805 802 799 795 789 783 779 774 771 768 766 763 761 759 757 755 753 750 747 744 742 741 741 741 741 741 741 741 742 743 744 745 747 748 748 748 749 751 753 755 756 755 755 755 756 758 761 763 763 765 768 772 774 777 778 780 784
846 846 846 845 844 843 842 840 839 839 838 837 835 834 833 831 830 829 827 825 824 822 820 818 816 813 811 809 806 804 801 797 791 785 780 776 772 769 766 764 762 760 757 755 753 750 747 744 742 741 740 740 740 739 739 739 740 741 741 742 744 745 745 745 747 748 750 751 752 752 752 752 753 755 759 761 762 763 764 765 768 771 775 780 783
847 847 847 847 846 845 844 842 841 840 840 838 837 835 834 833 832 830 829 827 825 823 821 820 818 815 813 810 807 805 802 798 793 788 783 778 774 770 768 766 763 760 758 755 752 750 748 745 742 740 739 738 738 738 738 738 738 739 739 740 741 741 742 743 744 745 746 747 749 749 749 750 752 755 757 758 761 763 766 767 768 771 774 778 781
849 849 850 849 849 847 846 845 843 842 841 840 839 837 836 835 833 832 830 828 826 824 823 821 819 817 814 812 809 806 803 800 796 791 786 781 776 772 770 767 765 762 759 756 753 751 749 746 743 740 738 737 736 736 736 737 737 738 739 739 738 739 740 741 741 742 743 744 745 746 747 748 750 752 753 755 757 760 764 767 767 769 771 774 777
851 851 852 851 851 850 848 847 846 844 843 842 841 840 838 837 835 834 832 830 828 826 824 822 820 818 816 813 811 808 805 802 798 794 789 785 780 776 773 770 767 764 761 758 755 752 749 747 744 741 738 736 735 734 734 735 735 737 738 738 737 738 738 739 740 740 741 741 742 743 744 745 748 749 750 751 753 755 759 761 762 764 767 769 772
852 853 853 853 853 852 850 849 848 846 846 845 844 842 841 839 838 836 833 831 829 828 826 824 821 819 817 815 813 810 807 804 800 796 793 788 784 780 777 773 770 767 764 761 758 754 751 748 744 741 738 735 734 733 733 733 733 734 735 736 736 737 738 739 739 739 739 740 741 742 743 744 747 748 749 750 750 751 754 757 758 759 762 765 768
854 854 855 855 854 853 852 851 850 849 848 847 846 845 843 841 840 837 835 833 831 829 827 825 823 821 819 817 814 811 809 806 802 799 796 792 788 784 780 776 774 772 768 764 760 756 753 749 745 742 738 735 733 731 731 731 731 732 733 734 735 737 739 740 740 739 739 740 741 742 743 745 746 748 749 749 749 750 751 754 756 756 758 761 764
855 856 856 856 856 855 854 853 852 851 850 850 848 847 845 843 841 839 837 835 832 830 828 826 825 823 821 818 816 814 811 808 805 802 798 795 792 788 784 781 779 776 773 768 764 760 756 753 749 745 740 736 733 731 731 732 733 733 734 735 735 738 740 741 741 740 740 741 741 742 744 745 746 748 748 748 749 750 751 752 754 755 756 757 760
857 857 857 857 857 856 855 854 854 853 853 852 850 849 847 846 844 841 839 837 834 832 830 828 826 824 822 820 818 816 813 811 808 805 801 798 795 792 789 786 783 780 776 772 768 765 762 759 755 750 744 739 736 733 733 734 735 736 737 737 737 738 740 741 742 743 743 743 743 744 746 746 747 748 748 748 748 749 750 751 753 755 757 758 759
858 858 858 858 857 857 856 856 855 855 855 854 852 851 849 848 845 843 841 839 836 834 832 830 828 826 824 822 820 818 816 813 810 807 804 801 798 795 793 790 787 783 780 777 774 771 769 765 760 755 749 745 741 738 738 738 737 737 739 739 740 741 741 741 743 745 746 746 746 747 748 749 749 749 749 749 750 750 750 752 753 754 756 759 761
859 859 858 858 858 858 858 858 857 857 856 856 854 852 851 849 847 845 843 841 839 836 835 833 830 828 826 824 822 820 818 816 813 811 808 805 802 799 796 793 790 787 784 782 779 776 773 770 765 761 756 752 748 745 745 745 742 741 742 742 743 744 744 744 745 746 748 749 750 751 752 752 752 752 752 752 752 752 751 753 755 756 757 759 761
859 859 858 858 858 859 859 859 859 858 858 857 856 854 853 851 849 847 845 843 841 839 837 835 833 831 829 827 825 823 821 818 816 813 811 808 805 803 800 797 793 791 788 786 783 781 778 774 770 765 762 759 755 751 752 751 748 746 747 746 746 747 747 748 749 749 751 753 754 755 756 756 756 756 756 756 755 755 755 757 759 760 761 760 762
860 859 859 859 860 860 861 860 860 860 859 858 857 856 854 853 851 849 848 845 844 842 840 838 836 834 832 830 828 826 824 821 819 816 814 811 808 806 803 800 797 794 792 789 787 784 780 777 774 770 768 765 762 760 760 757 752 752 753 751 750 750 751 752 754 754 756 758 759 759 760 760 761 761 760 760 759 759 761 762 763 764 765 763 764
860 859 860 860 861 862 862 861 861 861 860 859 858 857 856 855 853 851 850 848 846 844 842 840 838 836 834 832 831 829 826 824 822 819 817 814 811 809 806 803 801 798 795 793 790 786 783 780 777 775 772 770 768 766 765 762 758 758 759 758 757 756 756 757 758 759 761 762 763 763 764 764 764 765 765 764 764 765 766 765 766 768 768 767 767
860 860 861 862 863 863 863 863 862 861 861 860 859 858 857 856 855 853 851 850 848 846 845 843 840 839 837 835 833 831 829 827 825 823 821 818 815 813 810 807 804 801 799 796 793 790 786 783 780 778 775 773 771 770 769 768 767 766 766 765 764 763 762 762 763 764 766 767 767 767 767 767 767 768 769 769 770 771 772 771 771 772 772 771 772
860 861 862 863 863 864 864 864 863 862 862 861 860 859 858 857 856 855 854 852 851 849 848 845 844 842 840 838 835 833 831 830 829 827 825 822 820 817 814 811 809 806 803 800 797 793 789 786 784 783 781 779 778 776 775 774 773 772 772 772 770 768 768 767 768 769 771 772 772 772 772 771 772 772 773 774 775 776 776 776 776 778 777 777 779
861 862 862 863 864 864 864 864 864 863 863 862 861 860 859 858 857 856 855 854 853 851 850 848 846 845 843 841 839 837 835 834 832 830 828 825 823 820 818 815 813 810 807 804 800 796 794 792 791 790 788 787 785 784 783 781 780 779 779 779 777 775 774 774 774 775 776 776 777 777 777 776 776 777 777 779 780 780 781 781 781 782 782 783 784
863 863 863 864 864 865 865 865 864 864 863 863 862 861 860 860 859 858 857 855 854 853 852 850 849 847 845 844 842 840 839 837 835 832 830 828 826 823 821 818 815 813 810 807 803 801 800 799 797 796 795 793 792 790 789 788 787 786 785 784 783 782 781 781 781 780 780 780 781 782 782 782 782 782 783 784 784 785 785 786 786 786 786 786 787
864 864 864 864 865 865 865 865 865 864 864 864 863 862 861 861 860 859 858 857 855 854 853 852 850 849 848 846 844 842 841 839 837 834 832 830 828 826 824 821 819 816 813 809 807 806 805 804 803 801 800 798 797 796 795 793 793 792 790 789 789 788 787 787 787 786 786 786 786 786 786 787 787 787 787 787 788 788 788 788 789 789 789 789 790
864 865 865 865 865 865 865 865 865 865 865 864 864 863 862 861 861 860 859 858 857 855 854 853 852 851 849 848 846 844 843 841 839 837 835 833 831 829 826 824 822 819 816 813 811 811 810 809 808 807 805 803 802 801 799 798 798 797 796 795 794 794 793 793 792 791 790 790 790 790 790 791 791 791 790 790 790 790 790 790 791 791 792 793 794
865 865 865 866 866 866 866 866 866 865 865 865 864 863 863 862 861 861 860 859 858 856 855 854 853 852 851 850 848 846 845 843 841 839 837 836 834 832 829 827 824 822 819 817 816 816 814 813 812 810 809 808 806 805 804 803 802 801 801 800 799 799 798 797 796 795 795 795 794 794 794 794 794 793 793 793 792 792 791 792 793 794 794 795 797
865 865 866 866 866 866 866 866 866 866 866 865 864 864 863 863 862 862 861 860 859 858 857 856 854 853 852 851 850 848 847 845 843 842 840 838 836 834 831 828 826 824 823 821 820 819 818 817 815 814 813 812 810 809 808 807 806 805 805 804 803 802 801 800 800 799 799 799 798 798 798 797 797 797 796 796 795 794 794 795 795 796 797 798 799
865 865 866 866 866 866 866 866 866 866 866 865 865 864 864 863 863 862 862 861 860 859 858 857 856 855 854 853 851 850 849 847 846 844 842 840 839 836 833 831 830 829 827 826 825 823 822 821 819 818 817 816 815 814 813 811 811 809 808 808 807 806 805 804 804 803 803 802 802 802 802 801 801 800 800 799 799 798 798 798 798 799 800 800 801
865 865 866 866 866 866 867 867 867 867 866 866 865 865 864 864 864 863 863 862 861 860 859 858 857 856 855 854 853 852 851 849 848 846 845 843 841 838 836 835 834 833 831 830 829 827 826 824 823 822 821 820 818 818 817 815 815 813 812 812 811 810 809 809 808 807 807 806 806 806 805 805 805 804 804 803 803 803 803 802 802 803 803 804 804
866 866 866 866 866 867 867 867 867 867 867 866 866 865 865 865 864 864 863 862 862 861 860 859 858 857 856 855 854 853 852 851 849 848 847 845 843 841 839 838 837 836 835 834 832 831 829 828 826 825 824 823 822 821 820 819 818 817 816 816 815 814 813 812 812 811 810 810 809 809 809 808 808 807 807 807 807 807 807 807 807 807 807 807 808
866 866 866 866 867 867 867 867 867 867 867 867 866 866 865 865 865 864 863 863 862 862 861 860 859 858 857 857 856 855 854 852 851 850 848 847 845 844 842 841 840 839 838 836 835 834 832 831 830 828 827 826 825 824 823 823 822 821 820 819 818 818 817 816 815 815 814 813 813 812 812 812 811 811 810 810 810 810 810 810 810 810 811 811 811
866 867 867 867 867 868 868 868 867 867 867 867 866 866 865 865 865 865 864 863 863 862 861 861 860 859 858 857 856 856 855 853 852 852 850 849 848 846 845 843 842 841 840 839 838 837 835 834 833 831 830 829 828 827 826 826 825 824 823 822 821 821 820 820 819 818 818 817 817 816 815 815 814 814 814 813 813 813 813 813 813 813 813 813 814
866 867 867 867 867 868 868 868 867 867 867 866 866 866 865 865 865 865 864 864 863 862 862 861 860 860 859 858 857 857 856 854 854 853 852 851 850 848 847 846 844 843 842 841 840 839 838 837 835 834 833 832 831 830 829 829 828 827 826 825 824 824 823 822 822 821 821 820 819 819 819 818 817 817 816 816 816 816 816 815 815 815 815 816 816
866 867 867 867 867 867 867 868 867 867 867 866 866 866 866 865 865 865 864 864 864 863 862 862 861 860 860 859 858 857 856 855 855 854 853 852 851 850 849 848 846 845 844 843 842 841 840 839 838 837 835 835 834 833 832 831 830 830 829 828 827 827 826 825 824 824 823 822 822 821 821 820 820 819 819 819 818 818 818 818 818 818 817 818 818
866 867 867 867 867 867 867 867 867 867 867 866 866 866 866 865 865 865 864 864 864 863 863 862 861 861 860 859 859 858 857 856 856 855 854 853 852 851 850 849 848 847 846 845 844 843 842 841 840 839 838 837 836 835 835 834 833 832 831 831 830 829 828 828 827 826 826 825 824 824 823 823 822 822 821 821 821 821 820 820 820 819 819 819 819
866 866 867 867 867 867 867 867 867 867 867 867 866 866 865 865 865 864 864 864 863 863 863 863 862 861 861 860 859 858 857 857 856 856 855 854 853 852 851 851 850 849 847 846 845 844 843 842 841 841 840 839 839 838 837 836 835 835 834 833 832 831 830 830 829 829 828 827 826 826 825 825 824 824 823 823 823 823 822 822 822 821 821 821 821
866 866 866 867 867 867 867 867 867 867 867 867 866 865 865 865 865 864 864 863 863 863 863 863 862 862 861 860 860 859 858 857 857 856 856 855 854 853 852 852 851 850 849 848 847 846 845 844 843 842 842 841 840 839 839 838 837 836 835 834 833 833 832 832 831 830 830 829 828 828 827 826 826 825 825 825 824 824 824 824 823 823 823 823 822
866 866 866 866 866 866 866 866 867 867 867 866 866 865 865 865 865 864 863 863 863 863 863 863 862 862 861 861 860 859 858 858 857 856 856 856 855 854 853 852 852 851 850 849 848 847 846 845 844 843 843 842 841 841 840 839 838 837 836 835 835 834 833 833 832 832 831 830 830 829 829 828 827 827 826 826 826 825 825 825 824 824 824 824 824
865 865 866 866 866 866 866 866 866 866 866 866 866 866 865 865 864 864 863 863 863 863 863 863 862 862 861 861 860 859 858 858 857 857 856 856 855 854 854 853 852 852 851 850 849 848 847 846 846 845 844 843 843 842 841 840 839 838 837 837 836 835 835 834 833 833 832 831 830 830 829 828 828 828 827 827 827 826 826 825 825 825 825 825 825
864 865 865 865 865 865 865 865 865 865 865 865 866 865 865 865 864 864 864 863 863 863 863 863 862 862 861 861 860 859 859 858 857 857 857 856 855 855 854 853 853 852 852 851 850 849 848 847 847 846 845 844 844 843 842 841 840 839 839 838 837 836 836 835 834 833 832 831 831 830 829 829 829 828 827 827 827 826 826 826 826 825 825 825 825
864 864 864 864 864 864 864 864 864 864 864 864 865 865 865 864 864 864 863 863 863 863 863 862 862 862 862 861 861 860 859 858 857 857 856 856 855 855 854 854 853 853 852 851 850 849 849 848 847 846 846 845 844 844 843 842 841 840 840 839 838 838 837 836 835 834 833 832 831 831 830 830 829 829 828 828 828 827 827 827 826 826 826 826 826
862 863 863 863 863 863 863 863 863 863 863 863 864 864 864 864 863 863 863 863 862 862 862 862 862 861 861 861 860 859 859 858 857 856 856 855 855 854 854 854 853 853 852 851 851 850 849 848 848 847 846 846 845 844 844 843 842 841 840 839 839 838 838 837 836 835 834 833 832 831 831 831 830 830 829 829 828 828 828 827 827 827 827 827 826
861 861 862 862 862 862 862 861 862 862 862 862 862 862 862 862 862 862 862 861 861 861 861 861 861 860 860 860 859 859 858 858 857 856 855 855 854 854 853 853 852 852 852 851 851 850 849 848 848 847 847 846 845 845 844 843 842 841 841 840 839 839 838 837 836 836 835 834 833 832 832 831 831 830 830 829 829 829 828 828 828 827 827 827 827